Location: Campolattaro
(41.2833°N, 14.7333°E)
Time: 01:57:45
(UTC+00:00)

Cosmos 2058 Rocket - Pass Details

Date: 19 May 2025
Orbit: 604 x 634 km, 82.5° (Epoch: 23 June)

Event Time Altitude Azimuth Distance (km) Brightness Sun altitude
Exits shadow 18:59:30 - 153° (SSE) 2,322 5.5 -7.6°
Reaches altitude 10° 19:00:23 10° 148° (SSE) 2,011 5.1 -7.8°
Maximum altitude 19:04:11 28° 89° (E) 1,186 4.1 -8.4°
Drops below altitude 10° 19:08:00 10° 31° (NNE) 2,016 5.8 -8.9°
Sets 19:10:28 0° 20° (NNE) 2,924 6.8 -9.3°
